Regional Weather Roundup
Issued by NWS

Home | Current Version | Previous Version | Graphics & Text | Print | Product List | Glossary On
Versions: 1 2 3 4 5 6 7 8 9 10 11 12 13 14 15 16 17 18 19 20 21 22 23 24 25 26 27 28 29 30 31 32 33 34 35 36 37 38 39 40 41 42 43 44 45 46 47 48 49 50
838
ASUS43 KOAX 231902
RWRNE

WEATHER ROUNDUP FOR NEBRASKA
NATIONAL WEATHER SERVICE OMAHA NE
200 PM CDT SUN APR 23 2017

NOTES: SATELLITE DATA IS BEING USED TO AUGMENT CLOUD COVER ABOVE
       12000 FEET.
       "FAIR" INDICATES FEW OR NO CLOUDS BELOW 12,000 FEET WITH NO
       SIGNIFICANT WEATHER AND/OR OBSTRUCTIONS TO VISIBILITY.

  * THESE STATIONS DO NOT REPORT WEATHER SUCH AS RAIN...SNOW OR FOG.

NEZ001>004-019>022-054>056-232000-
NEBRASKA PANHANDLE

CITY           SKY/WX    TMP DP  RH WIND       PRES   REMARKS
SCOTTSBLUFF    CLOUDY    74  26  16 SW9G22    29.80F
ALLIANCE       SUNNY     69  36  29 S23       29.81F
CHADRON        MOSUNNY   71  29  21 SW15      29.75F
KIMBALL        CLOUDY    64  40  41 S13G18    29.87F
SIDNEY         CLOUDY    64  40  41 S16G25    29.87F
$$

NEZ057>060-069>072-079>082-232000-
SOUTHWEST NEBRASKA

CITY           SKY/WX    TMP DP  RH WIND       PRES   REMARKS
NORTH PLATTE   MOSUNNY   68  29  23 S22G33    29.92F
IMPERIAL       CLOUDY    63  37  38 S26G36    29.92F
LEXINGTON      SUNNY     68  26  20 S22G36    29.98F
MCCOOK         MOSUNNY   67  32  27 S26G33    29.97F
OGALLALA       CLOUDY    68  33  27 S21G32    29.89F
$$

NEZ005>010-023>029-035>040-094-232000-
NORTH CENTRAL NEBRASKA

CITY           SKY/WX    TMP DP  RH WIND       PRES   REMARKS
VALENTINE      PTSUNNY   69  27  20 SW28G37   29.83F
AINSWORTH      MOSUNNY   65  32  29 S20G33    29.87F
BROKEN BOW     SUNNY     69  26  20 S28G39    29.95F
O`NEILL        CLOUDY    69  21  16 S24G35    29.93F
ORD            SUNNY     68  26  20 S28G35    29.95F
THEDFORD       CLOUDY    67  30  24 S25G37    29.90F
$$

NEZ041-046>049-061>064-073>077-083>087-232000-
SOUTH CENTRAL NEBRASKA

CITY           SKY/WX    TMP DP  RH WIND       PRES   REMARKS
GRAND ISLAND   SUNNY     69  28  21 S26G35    30.00F
AURORA         SUNNY     68  28  21 S17G26    30.02F
HASTINGS       SUNNY     68  26  20 S20G25    30.03F
HEBRON         SUNNY     67  28  23 SW10G18   30.08F
HOLDREGE       SUNNY     66  27  23 S23G31    30.00F
KEARNEY *      SUNNY     70  27  19 S28G37    29.99F
YORK           SUNNY     68  27  21 S15G35    30.04F
$$

NEZ011>018-030>034-042>045-232000-
NORTHEAST NEBRASKA

CITY           SKY/WX    TMP DP  RH WIND       PRES   REMARKS
NORFOLK        SUNNY     70  29  21 S23G33    29.97F
ALBION         CLOUDY    69  27  20 S20G31    29.98F
BLAIR          SUNNY     69  30  23 S18G25    30.04F
FREMONT        SUNNY     69  30  23 S14G23    30.04F
TEKAMAH        SUNNY     69  35  28 S24       30.02F
WAYNE          MOSUNNY   68  33  27 SW25G32   29.98F
$$

NEZ050>053-065>068-078-088>093-232000-
SOUTHEAST NEBRASKA

CITY           SKY/WX    TMP DP  RH WIND       PRES   REMARKS
LINCOLN        SUNNY     70  29  21 S16       30.06F
OMAHA EPPLEY   PTSUNNY   71  27  19 S17       30.05F
BEATRICE       SUNNY     68  33  27 SW15      30.09F
FALLS CITY     SUNNY     68  33  27 MISG      30.10F
NEBRASKA CITY  SUNNY     68  19  15 SW16      30.09F
PLATTSMOUTH    SUNNY     69  16  13 S13G22    30.07F
$$

NEZ044-045-051>053-067-232000-
OMAHA AREA

CITY           SKY/WX    TMP DP  RH WIND       PRES   REMARKS
OMAHA EPPLEY   PTSUNNY   71  27  19 S17       30.05F
BLAIR          SUNNY     69  30  23 S18G25    30.04F
FREMONT        SUNNY     69  30  23 S14G23    30.04F
MILLARD        SUNNY     70  30  22 S10G18    30.05F
OFFUTT AFB     MOSUNNY   70  30  22 S17       30.05F
PLATTSMOUTH    SUNNY     69  16  13 S13G22    30.07F
WAHOO          FAIR      70  26  19 S17G24    30.04F
$$




USA.gov is the U.S. government's official web portal to all federal, state and local government web resources and services.